Year,Month,Day,Hour,Minute,Value (Times are PST for temperature in C)
2011,06,28,00,00,15.40
2011,06,28,00,01,15.40
2011,06,28,00,02,15.40
2011,06,28,00,03,15.40
2011,06,28,00,04,15.40
2011,06,28,00,05,15.40
2011,06,28,00,06,15.40
2011,06,28,00,07,15.40
2011,06,28,00,08,15.40
2011,06,28,00,09,15.40
2011,06,28,00,10,15.40
2011,06,28,00,11,15.40
2011,06,28,00,12,15.40
2011,06,28,00,13,15.40
2011,06,28,00,14,15.40
2011,06,28,00,15,15.40
2011,06,28,00,16,15.40
2011,06,28,00,17,15.40
2011,06,28,00,18,15.40
2011,06,28,00,19,15.40
2011,06,28,00,20,15.40
2011,06,28,00,21,15.40
2011,06,28,00,22,15.40
2011,06,28,00,23,15.40
2011,06,28,00,24,15.40
2011,06,28,00,25,15.40
2011,06,28,00,26,15.40
2011,06,28,00,27,15.40
2011,06,28,00,28,15.40
2011,06,28,00,29,15.40
2011,06,28,00,30,15.40
2011,06,28,00,31,15.40
2011,06,28,00,32,15.40
2011,06,28,00,33,15.40
2011,06,28,00,34,15.40
2011,06,28,00,35,15.30
2011,06,28,00,36,15.30
2011,06,28,00,37,15.30
2011,06,28,00,38,15.30
2011,06,28,00,39,15.30
2011,06,28,00,40,15.30
2011,06,28,00,41,15.30
2011,06,28,00,42,15.30
2011,06,28,00,43,15.30
2011,06,28,00,44,15.30
2011,06,28,00,45,15.30
2011,06,28,00,46,15.30
2011,06,28,00,47,15.30
2011,06,28,00,48,15.30
2011,06,28,00,49,15.30
2011,06,28,00,50,15.30
2011,06,28,00,51,15.30
2011,06,28,00,52,15.20
2011,06,28,00,53,15.20
2011,06,28,00,54,15.20
2011,06,28,00,55,15.20
2011,06,28,00,56,15.20
2011,06,28,00,57,15.20
2011,06,28,00,58,15.20
2011,06,28,00,59,15.10
2011,06,28,01,00,15.10
2011,06,28,01,01,15.10
2011,06,28,01,02,15.10
2011,06,28,01,03,15.00
2011,06,28,01,04,15.00
2011,06,28,01,05,15.00
2011,06,28,01,06,15.00
2011,06,28,01,07,14.90
2011,06,28,01,08,14.90
2011,06,28,01,09,14.90
2011,06,28,01,10,14.90
2011,06,28,01,11,14.90
2011,06,28,01,12,14.90
2011,06,28,01,13,14.90
2011,06,28,01,14,14.90
2011,06,28,01,15,14.80
2011,06,28,01,16,14.80
2011,06,28,01,17,14.80
2011,06,28,01,18,14.80
2011,06,28,01,19,14.80
2011,06,28,01,20,14.80
2011,06,28,01,21,14.80
2011,06,28,01,22,14.80
2011,06,28,01,23,14.80
2011,06,28,01,24,14.80
2011,06,28,01,25,14.80
2011,06,28,01,26,14.80
2011,06,28,01,27,14.80
2011,06,28,01,28,14.70
2011,06,28,01,29,14.70
2011,06,28,01,30,14.70
2011,06,28,01,31,14.70
2011,06,28,01,32,14.70
2011,06,28,01,33,14.70
2011,06,28,01,34,14.70
2011,06,28,01,35,14.70
2011,06,28,01,36,14.70
2011,06,28,01,37,14.70
2011,06,28,01,38,14.70
2011,06,28,01,39,14.70
2011,06,28,01,40,14.70
2011,06,28,01,41,14.70
2011,06,28,01,42,14.70
2011,06,28,01,43,14.60
2011,06,28,01,44,14.60
2011,06,28,01,45,14.60
2011,06,28,01,46,14.60
2011,06,28,01,47,14.60
2011,06,28,01,48,14.60
2011,06,28,01,49,14.60
2011,06,28,01,50,14.60
2011,06,28,01,51,14.60
2011,06,28,01,52,14.60
2011,06,28,01,53,14.60
2011,06,28,01,54,14.60
2011,06,28,01,55,14.60
2011,06,28,01,56,14.60
2011,06,28,01,57,14.60
2011,06,28,01,58,14.60
2011,06,28,01,59,14.60
2011,06,28,02,00,14.50
2011,06,28,02,01,14.50
2011,06,28,02,02,14.50
2011,06,28,02,03,14.50
2011,06,28,02,04,14.50
2011,06,28,02,05,14.40
2011,06,28,02,06,14.40
2011,06,28,02,07,14.40
2011,06,28,02,08,14.40
2011,06,28,02,09,14.40
2011,06,28,02,10,14.40
2011,06,28,02,11,14.30
2011,06,28,02,12,14.30
2011,06,28,02,13,14.30
2011,06,28,02,14,14.30
2011,06,28,02,15,14.30
2011,06,28,02,16,14.30
2011,06,28,02,17,14.30
2011,06,28,02,18,14.30
2011,06,28,02,19,14.30
2011,06,28,02,20,14.30
2011,06,28,02,21,14.30
2011,06,28,02,22,14.30
2011,06,28,02,23,14.30
2011,06,28,02,24,14.20
2011,06,28,02,25,14.20
2011,06,28,02,26,14.20
2011,06,28,02,27,14.20
2011,06,28,02,28,14.20
2011,06,28,02,29,14.20
2011,06,28,02,30,14.20
2011,06,28,02,31,14.20
2011,06,28,02,32,14.20
2011,06,28,02,33,14.20
2011,06,28,02,34,14.20
2011,06,28,02,35,14.20
2011,06,28,02,36,14.20
2011,06,28,02,37,14.20
2011,06,28,02,38,14.20
2011,06,28,02,39,14.20
2011,06,28,02,40,14.20
2011,06,28,02,41,14.20
2011,06,28,02,42,14.20
2011,06,28,02,43,14.20
2011,06,28,02,44,14.10
2011,06,28,02,45,14.20
2011,06,28,02,46,14.20
2011,06,28,02,47,14.10
2011,06,28,02,48,14.10
2011,06,28,02,49,14.10
2011,06,28,02,50,14.10
2011,06,28,02,51,14.10
2011,06,28,02,52,14.10
2011,06,28,02,53,14.10
2011,06,28,02,54,14.10
2011,06,28,02,55,14.10
2011,06,28,02,56,14.10
2011,06,28,02,57,14.10
2011,06,28,02,58,14.10
2011,06,28,02,59,14.10
2011,06,28,03,00,14.10
2011,06,28,03,01,14.10
2011,06,28,03,02,14.10
2011,06,28,03,03,14.10
2011,06,28,03,04,14.10
2011,06,28,03,05,14.00
2011,06,28,03,06,14.00
2011,06,28,03,07,14.00
2011,06,28,03,08,14.00
2011,06,28,03,09,14.00
2011,06,28,03,10,13.90
2011,06,28,03,11,13.90
2011,06,28,03,12,13.90
2011,06,28,03,13,13.90
2011,06,28,03,14,13.90
2011,06,28,03,15,13.90
2011,06,28,03,16,13.90
2011,06,28,03,17,13.90
2011,06,28,03,18,13.90
2011,06,28,03,19,13.90
2011,06,28,03,20,13.90
2011,06,28,03,21,13.90
2011,06,28,03,22,13.90
2011,06,28,03,23,13.90
2011,06,28,03,24,13.90
2011,06,28,03,25,13.90
2011,06,28,03,26,13.90
2011,06,28,03,27,14.00
2011,06,28,03,28,14.00
2011,06,28,03,29,14.00
2011,06,28,03,30,14.00
2011,06,28,03,31,14.00
2011,06,28,03,32,14.00
2011,06,28,03,33,14.00
2011,06,28,03,34,14.00
2011,06,28,03,35,14.00
2011,06,28,03,36,14.00
2011,06,28,03,37,14.00
2011,06,28,03,38,14.00
2011,06,28,03,39,14.00
2011,06,28,03,40,14.00
2011,06,28,03,41,14.00
2011,06,28,03,42,14.00
2011,06,28,03,43,14.00
2011,06,28,03,44,14.00
2011,06,28,03,45,14.00
2011,06,28,03,46,14.00
2011,06,28,03,47,14.10
2011,06,28,03,48,14.10
2011,06,28,03,49,14.10
2011,06,28,03,50,14.10
2011,06,28,03,51,14.10
2011,06,28,03,52,14.10
2011,06,28,03,53,14.10
2011,06,28,03,54,14.10
2011,06,28,03,55,14.10
2011,06,28,03,56,14.10
2011,06,28,03,57,14.10
2011,06,28,03,58,14.10
2011,06,28,03,59,14.10
2011,06,28,04,00,14.00
2011,06,28,04,01,14.00
2011,06,28,04,02,14.00
2011,06,28,04,03,14.00
2011,06,28,04,04,14.00
2011,06,28,04,05,14.00
2011,06,28,04,06,14.00
2011,06,28,04,07,14.00
2011,06,28,04,08,14.00
2011,06,28,04,09,14.00
2011,06,28,04,10,14.00
2011,06,28,04,11,14.00
2011,06,28,04,12,14.00
2011,06,28,04,13,13.90
2011,06,28,04,14,13.90
2011,06,28,04,15,13.90
2011,06,28,04,16,13.90
2011,06,28,04,17,14.00
2011,06,28,04,18,13.90
2011,06,28,04,19,13.90
2011,06,28,04,20,13.90
2011,06,28,04,21,13.90
2011,06,28,04,22,13.90
2011,06,28,04,23,13.90
2011,06,28,04,24,13.90
2011,06,28,04,25,13.90
2011,06,28,04,26,13.90
2011,06,28,04,27,13.90
2011,06,28,04,28,13.90
2011,06,28,04,29,13.90
2011,06,28,04,30,13.90
2011,06,28,04,31,13.80
2011,06,28,04,32,13.80
2011,06,28,04,33,13.80
2011,06,28,04,34,13.80
2011,06,28,04,35,13.80
2011,06,28,04,36,13.80
2011,06,28,04,37,13.80
2011,06,28,04,38,13.70
2011,06,28,04,39,13.70
2011,06,28,04,40,13.70
2011,06,28,04,41,13.70
2011,06,28,04,42,13.70
2011,06,28,04,43,13.60
2011,06,28,04,44,13.60
2011,06,28,04,45,13.60
2011,06,28,04,46,13.60
2011,06,28,04,47,13.60
2011,06,28,04,48,13.60
2011,06,28,04,49,13.60
2011,06,28,04,50,13.50
2011,06,28,04,51,13.50
2011,06,28,04,52,13.50
2011,06,28,04,53,13.50
2011,06,28,04,54,13.50
2011,06,28,04,55,13.50
2011,06,28,04,56,13.50
2011,06,28,04,57,13.50
2011,06,28,04,58,13.50
2011,06,28,04,59,13.50
2011,06,28,05,00,13.50
2011,06,28,05,01,13.50
2011,06,28,05,02,13.50
2011,06,28,05,03,13.50
2011,06,28,05,04,13.50
2011,06,28,05,05,13.50
2011,06,28,05,06,13.50
2011,06,28,05,07,13.40
2011,06,28,05,08,13.40
2011,06,28,05,09,13.40
2011,06,28,05,10,13.40
2011,06,28,05,11,13.40
2011,06,28,05,12,13.40
2011,06,28,05,13,13.40
2011,06,28,05,14,13.40
2011,06,28,05,15,13.30
2011,06,28,05,16,13.30
2011,06,28,05,17,13.30
2011,06,28,05,18,13.30
2011,06,28,05,19,13.30
2011,06,28,05,20,13.30
2011,06,28,05,21,13.30
2011,06,28,05,22,13.30
2011,06,28,05,23,13.30
2011,06,28,05,24,13.30
2011,06,28,05,25,13.30
2011,06,28,05,26,13.30
2011,06,28,05,27,13.30
2011,06,28,05,28,13.30
2011,06,28,05,29,13.30
2011,06,28,05,30,13.30
2011,06,28,05,31,13.30
2011,06,28,05,32,13.30
2011,06,28,05,33,13.30
2011,06,28,05,34,13.30
2011,06,28,05,35,13.30
2011,06,28,05,36,13.20
2011,06,28,05,37,13.30
2011,06,28,05,38,13.20
2011,06,28,05,39,13.20
2011,06,28,05,40,13.20
2011,06,28,05,41,13.20
2011,06,28,05,42,13.20
2011,06,28,05,43,13.20
2011,06,28,05,44,13.20
2011,06,28,05,45,13.20
2011,06,28,05,46,13.20
2011,06,28,05,47,13.20
2011,06,28,05,48,13.20
2011,06,28,05,49,13.20
2011,06,28,05,50,13.20
2011,06,28,05,51,13.30
2011,06,28,05,52,13.30
2011,06,28,05,53,13.30
2011,06,28,05,54,13.30
2011,06,28,05,55,13.30
2011,06,28,05,56,13.30
2011,06,28,05,57,13.30
2011,06,28,05,58,13.30
2011,06,28,05,59,13.30
2011,06,28,06,00,13.30
2011,06,28,06,01,13.30
2011,06,28,06,02,13.30
2011,06,28,06,03,13.30
2011,06,28,06,04,13.40
2011,06,28,06,05,13.40
2011,06,28,06,06,13.40
2011,06,28,06,07,13.40
2011,06,28,06,08,13.40
2011,06,28,06,09,13.40
2011,06,28,06,10,13.40
2011,06,28,06,11,13.40
2011,06,28,06,12,13.40
2011,06,28,06,13,13.40
2011,06,28,06,14,13.40
2011,06,28,06,15,13.40
2011,06,28,06,16,13.40
2011,06,28,06,17,13.40
2011,06,28,06,18,13.40
2011,06,28,06,19,13.40
2011,06,28,06,20,13.40
2011,06,28,06,21,13.40
2011,06,28,06,22,13.40
2011,06,28,06,23,13.40
2011,06,28,06,24,13.40
2011,06,28,06,25,13.40
2011,06,28,06,26,13.40
2011,06,28,06,27,13.40
2011,06,28,06,28,13.40
2011,06,28,06,29,13.50
2011,06,28,06,30,13.50
2011,06,28,06,31,13.50
2011,06,28,06,32,13.40
2011,06,28,06,33,13.50
2011,06,28,06,34,13.50
2011,06,28,06,35,13.50
2011,06,28,06,36,13.50
2011,06,28,06,37,13.50
2011,06,28,06,38,13.50
2011,06,28,06,39,13.50
2011,06,28,06,40,13.50
2011,06,28,06,41,13.50
2011,06,28,06,42,13.50
2011,06,28,06,43,13.50
2011,06,28,06,44,13.50
2011,06,28,06,45,13.50
2011,06,28,06,46,13.50
2011,06,28,06,47,13.50
2011,06,28,06,48,13.50
2011,06,28,06,49,13.50
2011,06,28,06,50,13.50
2011,06,28,06,51,13.60
2011,06,28,06,52,13.60
2011,06,28,06,53,13.60
2011,06,28,06,54,13.60
2011,06,28,06,55,13.60
2011,06,28,06,56,13.60
2011,06,28,06,57,13.60
2011,06,28,06,58,13.60
2011,06,28,06,59,13.60
2011,06,28,07,00,13.60
2011,06,28,07,01,13.60
2011,06,28,07,02,13.60
2011,06,28,07,03,13.70
2011,06,28,07,04,13.70
2011,06,28,07,05,13.70
2011,06,28,07,06,13.70
2011,06,28,07,07,13.70
2011,06,28,07,08,13.70
2011,06,28,07,09,13.70
2011,06,28,07,10,13.70
2011,06,28,07,11,13.70
2011,06,28,07,12,13.70
2011,06,28,07,13,13.70
2011,06,28,07,14,13.70
2011,06,28,07,15,13.80
2011,06,28,07,16,13.80
2011,06,28,07,17,13.80
2011,06,28,07,18,13.80
2011,06,28,07,19,13.80
2011,06,28,07,20,13.80
2011,06,28,07,21,13.80
2011,06,28,07,22,13.80
2011,06,28,07,23,13.80
2011,06,28,07,24,13.80
2011,06,28,07,25,13.80
2011,06,28,07,26,13.80
2011,06,28,07,27,13.80
2011,06,28,07,28,13.80
2011,06,28,07,29,13.80
2011,06,28,07,30,13.80
2011,06,28,07,31,13.90
2011,06,28,07,32,13.90
2011,06,28,07,33,13.90
2011,06,28,07,34,13.90
2011,06,28,07,35,13.90
2011,06,28,07,36,13.90
2011,06,28,07,37,13.90
2011,06,28,07,38,14.00
2011,06,28,07,39,14.00
2011,06,28,07,40,14.00
2011,06,28,07,41,14.00
2011,06,28,07,42,14.00
2011,06,28,07,43,14.10
2011,06,28,07,44,14.10
2011,06,28,07,45,14.10
2011,06,28,07,46,14.10
2011,06,28,07,47,14.10
2011,06,28,07,48,14.10
2011,06,28,07,49,14.20
2011,06,28,07,50,14.20
2011,06,28,07,51,14.20
2011,06,28,07,52,14.20
2011,06,28,07,53,14.20
2011,06,28,07,54,14.20
2011,06,28,07,55,14.30
2011,06,28,07,56,14.30
2011,06,28,07,57,14.30
2011,06,28,07,58,14.30
2011,06,28,07,59,14.30
2011,06,28,08,00,14.30
2011,06,28,08,01,14.40
2011,06,28,08,02,14.40
2011,06,28,08,03,14.40
2011,06,28,08,04,14.50
2011,06,28,08,05,14.50
2011,06,28,08,06,14.60
2011,06,28,08,07,14.60
2011,06,28,08,08,14.60
2011,06,28,08,09,14.60
2011,06,28,08,10,14.60
2011,06,28,08,11,14.70
2011,06,28,08,12,14.70
2011,06,28,08,13,14.70
2011,06,28,08,14,14.80
2011,06,28,08,15,14.80
2011,06,28,08,16,14.80
2011,06,28,08,17,14.80
2011,06,28,08,18,14.80
2011,06,28,08,19,14.90
2011,06,28,08,20,14.90
2011,06,28,08,21,14.90
2011,06,28,08,22,15.00
2011,06,28,08,23,15.00
2011,06,28,08,24,15.10
2011,06,28,08,25,15.10
2011,06,28,08,26,15.20
2011,06,28,08,27,15.20
2011,06,28,08,28,15.30
2011,06,28,08,29,15.30
2011,06,28,08,30,15.30
2011,06,28,08,31,15.40
2011,06,28,08,32,15.40
2011,06,28,08,33,15.40
2011,06,28,08,34,15.50
2011,06,28,08,35,15.60
2011,06,28,08,36,15.60
2011,06,28,08,37,15.70
2011,06,28,08,38,15.70
2011,06,28,08,39,15.80
2011,06,28,08,40,15.80
2011,06,28,08,41,15.90
2011,06,28,08,42,16.00
2011,06,28,08,43,16.00
2011,06,28,08,44,16.10
2011,06,28,08,45,16.20
2011,06,28,08,46,16.20
2011,06,28,08,47,16.20
2011,06,28,08,48,16.30
2011,06,28,08,49,16.30
2011,06,28,08,50,16.30
2011,06,28,08,51,16.30
2011,06,28,08,52,16.30
2011,06,28,08,53,16.30
2011,06,28,08,54,16.30
2011,06,28,08,55,16.40
2011,06,28,08,56,16.40
2011,06,28,08,57,16.40
2011,06,28,08,58,16.40
2011,06,28,08,59,16.40
2011,06,28,09,00,16.40
2011,06,28,09,01,16.40
2011,06,28,09,02,16.40
2011,06,28,09,03,16.40
2011,06,28,09,04,16.50
2011,06,28,09,05,16.50
2011,06,28,09,06,16.50
2011,06,28,09,07,16.50
2011,06,28,09,08,16.50
2011,06,28,09,09,16.50
2011,06,28,09,10,16.50
2011,06,28,09,11,16.50
2011,06,28,09,12,16.50
2011,06,28,09,13,16.50
2011,06,28,09,14,16.50
2011,06,28,09,15,16.50
2011,06,28,09,16,16.50
2011,06,28,09,17,16.50
2011,06,28,09,18,16.50
2011,06,28,09,19,16.50
2011,06,28,09,20,16.50
2011,06,28,09,21,16.50
2011,06,28,09,22,16.50
2011,06,28,09,23,16.50
2011,06,28,09,24,16.60
2011,06,28,09,25,16.60
2011,06,28,09,26,16.60
2011,06,28,09,27,16.60
2011,06,28,09,28,16.70
2011,06,28,09,29,16.70
2011,06,28,09,30,16.70
2011,06,28,09,31,16.70
2011,06,28,09,32,16.70
2011,06,28,09,33,16.70
2011,06,28,09,34,16.70
2011,06,28,09,35,16.80
2011,06,28,09,36,16.80
2011,06,28,09,37,16.80
2011,06,28,09,38,16.70
2011,06,28,09,39,16.70
2011,06,28,09,40,16.70
2011,06,28,09,41,16.70
2011,06,28,09,42,16.70
2011,06,28,09,43,16.70
2011,06,28,09,44,16.60
2011,06,28,09,45,16.60
2011,06,28,09,46,16.60
2011,06,28,09,47,16.60
2011,06,28,09,48,16.60
2011,06,28,09,49,16.50
2011,06,28,09,50,16.50
2011,06,28,09,51,16.50
2011,06,28,09,52,16.50
2011,06,28,09,53,16.40
2011,06,28,09,54,16.40
2011,06,28,09,55,16.40
2011,06,28,09,56,16.40
2011,06,28,09,57,16.50
2011,06,28,09,58,16.50
2011,06,28,09,59,16.50
2011,06,28,10,00,16.60
2011,06,28,10,01,16.60
2011,06,28,10,02,16.60
2011,06,28,10,03,16.60
2011,06,28,10,04,16.60
2011,06,28,10,05,16.60
2011,06,28,10,06,16.60
2011,06,28,10,07,16.70
2011,06,28,10,08,16.70
2011,06,28,10,09,16.70
2011,06,28,10,10,16.70
2011,06,28,10,11,16.70
2011,06,28,10,12,16.70
2011,06,28,10,13,16.80
2011,06,28,10,14,16.80
2011,06,28,10,15,16.80
2011,06,28,10,16,16.80
2011,06,28,10,17,16.80
2011,06,28,10,18,16.80
2011,06,28,10,19,16.80
2011,06,28,10,20,16.80
2011,06,28,10,21,16.90
2011,06,28,10,22,16.90
2011,06,28,10,23,16.90
2011,06,28,10,24,16.90
2011,06,28,10,25,17.00
2011,06,28,10,26,17.00
2011,06,28,10,27,17.10
2011,06,28,10,28,17.10
2011,06,28,10,29,17.10
2011,06,28,10,30,17.10
2011,06,28,10,31,17.10
2011,06,28,10,32,17.20
2011,06,28,10,33,17.20
2011,06,28,10,34,17.30
2011,06,28,10,35,17.30
2011,06,28,10,36,17.30
2011,06,28,10,37,17.40
2011,06,28,10,38,17.40
2011,06,28,10,39,17.40
2011,06,28,10,40,17.50
2011,06,28,10,41,17.50
2011,06,28,10,42,17.60
2011,06,28,10,43,17.60
2011,06,28,10,44,17.60
2011,06,28,10,45,17.70
2011,06,28,10,46,17.70
2011,06,28,10,47,17.70
2011,06,28,10,48,17.70
2011,06,28,10,49,17.70
2011,06,28,10,50,17.80
2011,06,28,10,51,17.80
2011,06,28,10,52,17.80
2011,06,28,10,53,17.80
2011,06,28,10,54,17.80
2011,06,28,10,55,17.90
2011,06,28,10,56,17.90
2011,06,28,10,57,17.90
2011,06,28,10,58,17.90
2011,06,28,10,59,17.90
2011,06,28,11,00,18.00
2011,06,28,11,01,18.00
2011,06,28,11,02,18.00
2011,06,28,11,03,18.00
2011,06,28,11,04,18.00
2011,06,28,11,05,18.00
2011,06,28,11,06,18.00
2011,06,28,11,07,18.00
2011,06,28,11,08,18.00
2011,06,28,11,09,18.10
2011,06,28,11,10,18.10
2011,06,28,11,11,18.10
2011,06,28,11,12,18.20
2011,06,28,11,13,18.20
2011,06,28,11,14,18.20
2011,06,28,11,15,18.20
2011,06,28,11,16,18.20
2011,06,28,11,17,18.20
2011,06,28,11,18,18.20
2011,06,28,11,19,18.20
2011,06,28,11,20,18.20
2011,06,28,11,21,18.20
2011,06,28,11,22,18.30
2011,06,28,11,23,18.30
2011,06,28,11,24,18.30
2011,06,28,11,25,18.30
2011,06,28,11,26,18.30
2011,06,28,11,27,18.30
2011,06,28,11,28,18.40
2011,06,28,11,29,18.40
2011,06,28,11,30,18.50
2011,06,28,11,31,18.50
2011,06,28,11,32,18.60
2011,06,28,11,33,18.70
2011,06,28,11,34,18.70
2011,06,28,11,35,18.80
2011,06,28,11,36,18.80
2011,06,28,11,37,18.80
2011,06,28,11,38,18.80
2011,06,28,11,39,18.90
2011,06,28,11,40,18.90
2011,06,28,11,41,18.90
2011,06,28,11,42,19.00
2011,06,28,11,43,19.00
2011,06,28,11,44,19.00
2011,06,28,11,45,19.00
2011,06,28,11,46,19.10
2011,06,28,11,47,19.20
2011,06,28,11,48,19.20
2011,06,28,11,49,19.30
2011,06,28,11,50,19.40
2011,06,28,11,51,19.40
2011,06,28,11,52,19.40
2011,06,28,11,53,19.50
2011,06,28,11,54,19.40
2011,06,28,11,55,19.50
2011,06,28,11,56,19.40
2011,06,28,11,57,19.40
2011,06,28,11,58,19.40
2011,06,28,11,59,19.50
2011,06,28,12,00,19.50
2011,06,28,12,01,19.50
2011,06,28,12,02,19.60
2011,06,28,12,03,19.60
2011,06,28,12,04,19.70
2011,06,28,12,05,19.70
2011,06,28,12,06,19.80
2011,06,28,12,07,19.80
2011,06,28,12,08,19.80
2011,06,28,12,09,19.80
2011,06,28,12,10,19.80
2011,06,28,12,11,19.80
2011,06,28,12,12,19.80
2011,06,28,12,13,19.80
2011,06,28,12,14,19.80
2011,06,28,12,15,19.80
2011,06,28,12,16,19.80
2011,06,28,12,17,19.80
2011,06,28,12,18,19.80
2011,06,28,12,19,19.80
2011,06,28,12,20,19.80
2011,06,28,12,21,19.80
2011,06,28,12,22,19.80
2011,06,28,12,23,19.80
2011,06,28,12,24,19.80
2011,06,28,12,25,19.80
2011,06,28,12,26,19.70
2011,06,28,12,27,19.70
2011,06,28,12,28,19.60
2011,06,28,12,29,19.50
2011,06,28,12,30,19.50
2011,06,28,12,31,19.50
2011,06,28,12,32,19.50
2011,06,28,12,33,19.40
2011,06,28,12,34,19.40
2011,06,28,12,35,19.40
2011,06,28,12,36,19.40
2011,06,28,12,37,19.40
2011,06,28,12,38,19.40
2011,06,28,12,39,19.40
2011,06,28,12,40,19.40
2011,06,28,12,41,19.30
2011,06,28,12,42,19.30
2011,06,28,12,43,19.30
2011,06,28,12,44,19.30
2011,06,28,12,45,19.30
2011,06,28,12,46,19.30
2011,06,28,12,47,19.30
2011,06,28,12,48,19.40
2011,06,28,12,49,19.40
2011,06,28,12,50,19.50
2011,06,28,12,51,19.60
2011,06,28,12,52,19.60
2011,06,28,12,53,19.70
2011,06,28,12,54,19.70
2011,06,28,12,55,19.70
2011,06,28,12,56,19.70
2011,06,28,12,57,19.70
2011,06,28,12,58,19.70
2011,06,28,12,59,19.70
2011,06,28,13,00,19.70
2011,06,28,13,01,19.70
2011,06,28,13,02,19.70
2011,06,28,13,03,19.70
2011,06,28,13,04,19.70
2011,06,28,13,05,19.70
2011,06,28,13,06,19.80
2011,06,28,13,07,19.80
2011,06,28,13,08,19.90
2011,06,28,13,09,19.90
2011,06,28,13,10,20.00
2011,06,28,13,11,20.10
2011,06,28,13,12,20.10
2011,06,28,13,13,20.20
2011,06,28,13,14,20.20
2011,06,28,13,15,20.20
2011,06,28,13,16,20.30
2011,06,28,13,17,20.30
2011,06,28,13,18,20.40
2011,06,28,13,19,20.50
2011,06,28,13,20,20.60
2011,06,28,13,21,20.70
2011,06,28,13,22,20.80
2011,06,28,13,23,20.90
2011,06,28,13,24,21.00
2011,06,28,13,25,21.00
2011,06,28,13,26,21.10
2011,06,28,13,27,21.10
2011,06,28,13,28,21.10
2011,06,28,13,29,21.10
2011,06,28,13,30,21.10
2011,06,28,13,31,21.10
2011,06,28,13,32,21.00
2011,06,28,13,33,21.00
2011,06,28,13,34,20.90
2011,06,28,13,35,20.80
2011,06,28,13,36,20.80
2011,06,28,13,37,20.70
2011,06,28,13,38,20.70
2011,06,28,13,39,20.60
2011,06,28,13,40,20.50
2011,06,28,13,41,20.50
2011,06,28,13,42,20.40
2011,06,28,13,43,20.50
2011,06,28,13,44,20.50
2011,06,28,13,45,20.50
2011,06,28,13,46,20.50
2011,06,28,13,47,20.60
2011,06,28,13,48,20.60
2011,06,28,13,49,20.50
2011,06,28,13,50,20.50
2011,06,28,13,51,20.60
2011,06,28,13,52,20.60
2011,06,28,13,53,20.60
2011,06,28,13,54,20.60
2011,06,28,13,55,20.60
2011,06,28,13,56,20.60
2011,06,28,13,57,20.60
2011,06,28,13,58,20.60
2011,06,28,13,59,20.60
2011,06,28,14,00,20.60
2011,06,28,14,01,20.60
2011,06,28,14,02,20.60
2011,06,28,14,03,20.60
2011,06,28,14,04,20.60
2011,06,28,14,05,20.50
2011,06,28,14,06,20.60
2011,06,28,14,07,20.60
2011,06,28,14,08,20.60
2011,06,28,14,09,20.70
2011,06,28,14,10,20.70
2011,06,28,14,11,20.60
2011,06,28,14,12,20.60
2011,06,28,14,13,20.50
2011,06,28,14,14,20.40
2011,06,28,14,15,20.40
2011,06,28,14,16,20.30
2011,06,28,14,17,20.30
2011,06,28,14,18,20.30
2011,06,28,14,19,20.20
2011,06,28,14,20,20.10
2011,06,28,14,21,20.00
2011,06,28,14,22,19.90
2011,06,28,14,23,19.90
2011,06,28,14,24,19.80
2011,06,28,14,25,19.80
2011,06,28,14,26,19.70
2011,06,28,14,27,19.60
2011,06,28,14,28,19.50
2011,06,28,14,29,19.40
2011,06,28,14,30,19.30
2011,06,28,14,31,19.20
2011,06,28,14,32,19.10
2011,06,28,14,33,18.90
2011,06,28,14,34,18.80
2011,06,28,14,35,18.80
2011,06,28,14,36,18.70
2011,06,28,14,37,18.50
2011,06,28,14,38,18.40
2011,06,28,14,39,18.40
2011,06,28,14,40,18.30
2011,06,28,14,41,18.20
2011,06,28,14,42,18.20
2011,06,28,14,43,18.10
2011,06,28,14,44,18.00
2011,06,28,14,45,18.00
2011,06,28,14,46,17.90
2011,06,28,14,47,17.80
2011,06,28,14,48,17.80
2011,06,28,14,49,17.70
2011,06,28,14,50,17.70
2011,06,28,14,51,17.70
2011,06,28,14,52,17.60
2011,06,28,14,53,17.60
2011,06,28,14,54,17.50
2011,06,28,14,55,17.50
2011,06,28,14,56,17.50
2011,06,28,14,57,17.50
2011,06,28,14,58,17.40
2011,06,28,14,59,17.40
2011,06,28,15,00,17.40
2011,06,28,15,01,17.40
2011,06,28,15,02,17.50
2011,06,28,15,03,17.50
2011,06,28,15,04,17.50
2011,06,28,15,05,17.50
2011,06,28,15,06,17.60
2011,06,28,15,07,17.60
2011,06,28,15,08,17.70
2011,06,28,15,09,17.70
2011,06,28,15,10,17.70
2011,06,28,15,11,17.80
2011,06,28,15,12,17.80
2011,06,28,15,13,17.80
2011,06,28,15,14,17.90
2011,06,28,15,15,17.90
2011,06,28,15,16,18.00
2011,06,28,15,17,18.10
2011,06,28,15,18,18.20
2011,06,28,15,19,18.20
2011,06,28,15,20,18.30
2011,06,28,15,21,18.40
2011,06,28,15,22,18.50
2011,06,28,15,23,18.60
2011,06,28,15,24,18.60
2011,06,28,15,25,18.70
2011,06,28,15,26,18.70
2011,06,28,15,27,18.80
2011,06,28,15,28,18.80
2011,06,28,15,29,18.90
2011,06,28,15,30,18.90
2011,06,28,15,31,19.00
2011,06,28,15,32,19.00
2011,06,28,15,33,19.10
2011,06,28,15,34,19.10
2011,06,28,15,35,19.20
2011,06,28,15,36,19.20
2011,06,28,15,37,19.30
2011,06,28,15,38,19.30
2011,06,28,15,39,19.30
2011,06,28,15,40,19.40
2011,06,28,15,41,19.40
2011,06,28,15,42,19.40
2011,06,28,15,43,19.50
2011,06,28,15,44,19.50
2011,06,28,15,45,19.50
2011,06,28,15,46,19.60
2011,06,28,15,47,19.60
2011,06,28,15,48,19.60
2011,06,28,15,49,19.60
2011,06,28,15,50,19.70
2011,06,28,15,51,19.70
2011,06,28,15,52,19.70
2011,06,28,15,53,19.80
2011,06,28,15,54,19.80
2011,06,28,15,55,19.80
2011,06,28,15,56,19.80
2011,06,28,15,57,19.80
2011,06,28,15,58,19.80
2011,06,28,15,59,19.90
2011,06,28,16,00,19.90
2011,06,28,16,01,19.90
2011,06,28,16,02,19.90
2011,06,28,16,03,19.90
2011,06,28,16,04,19.80
2011,06,28,16,05,19.80
2011,06,28,16,06,19.80
2011,06,28,16,07,19.80
2011,06,28,16,08,19.80
2011,06,28,16,09,19.70
2011,06,28,16,10,19.70
2011,06,28,16,11,19.60
2011,06,28,16,12,19.60
2011,06,28,16,13,19.60
2011,06,28,16,14,19.50
2011,06,28,16,15,19.50
2011,06,28,16,16,19.50
2011,06,28,16,17,19.40
2011,06,28,16,18,19.40
2011,06,28,16,19,19.50
2011,06,28,16,20,19.50
2011,06,28,16,21,19.50
2011,06,28,16,22,19.60
2011,06,28,16,23,19.60
2011,06,28,16,24,19.60
2011,06,28,16,25,19.60
2011,06,28,16,26,19.60
2011,06,28,16,27,19.60
2011,06,28,16,28,19.60
2011,06,28,16,29,19.70
2011,06,28,16,30,19.70
2011,06,28,16,31,19.70
2011,06,28,16,32,19.70
2011,06,28,16,33,19.70
2011,06,28,16,34,19.70
2011,06,28,16,35,19.70
2011,06,28,16,36,19.70
2011,06,28,16,37,19.70
2011,06,28,16,38,19.70
2011,06,28,16,39,19.70
2011,06,28,16,40,19.70
2011,06,28,16,41,19.70
2011,06,28,16,42,19.70
2011,06,28,16,43,19.70
2011,06,28,16,44,19.70
2011,06,28,16,45,19.80
2011,06,28,16,46,19.80
2011,06,28,16,47,19.80
2011,06,28,16,48,19.80
2011,06,28,16,49,19.80
2011,06,28,16,50,19.80
2011,06,28,16,51,19.80
2011,06,28,16,52,19.80
2011,06,28,16,53,19.70
2011,06,28,16,54,19.70
2011,06,28,16,55,19.70
2011,06,28,16,56,19.70
2011,06,28,16,57,19.70
2011,06,28,16,58,19.70
2011,06,28,16,59,19.70
2011,06,28,17,00,19.70
2011,06,28,17,01,19.60
2011,06,28,17,02,19.60
2011,06,28,17,03,19.60
2011,06,28,17,04,19.60
2011,06,28,17,05,19.50
2011,06,28,17,06,19.50
2011,06,28,17,07,19.40
2011,06,28,17,08,19.40
2011,06,28,17,09,19.40
2011,06,28,17,10,19.30
2011,06,28,17,11,19.30
2011,06,28,17,12,19.30
2011,06,28,17,13,19.30
2011,06,28,17,14,19.30
2011,06,28,17,15,19.30
2011,06,28,17,16,19.30
2011,06,28,17,17,19.30
2011,06,28,17,18,19.30
2011,06,28,17,19,19.20